Location: Quedlinburg
(51.7921°N, 11.1414°E)
Time: 12:50:22
(UTC+02:00)

RS-15 - Pass Details

Date: 15 March 2026
Orbit: 1893 x 2152 km, 64.8° (Epoch: 22 April)

Event Time Altitude Azimuth Distance (km) Brightness Sun altitude
Rises 18:31:11 0° 159° (SSE) 5,263 10.1 -2.6°
Reaches altitude 10° 18:35:22 10° 146° (SE) 4,271 9.5 -3.2°
Maximum altitude 18:43:03 23° 99° (E) 3,367 8.7 -4.4°
Drops below altitude 10° 18:50:50 10° 54° (NE) 4,358 9.4 -5.6°
Sets 18:55:06 0° 41° (NE) 5,395 10.0 -6.3°
